AGROMETEOROLOŠKI PORTAL

vinorodna pokrajina

Temelj dobrega kmetovanja

Pregled podatkov za lokacijo SOTINSKI BREG ARSO, meteorološka postaja 135

Pregled senzorjev na lokaciji

ID Ime Zadnja
vrednost
Datum in čas
meritve
(lokalni čas)
Tip
senzorja
2579 Sončno sevanje (W/m2) 0 W/m2 27.1.2023 02:30 ARSO
2585 Padavine (mm) 0,1 mm 27.1.2023 02:30 ARSO
2593 Relativna zračna vlaga (2 m) (% RH) 98 % RH 27.1.2023 02:30 ARSO
2592 Temperatura (2 m) (°C) -1,5 °C 27.1.2023 02:30 ARSO
2597 Smer vetra (2 m) (°) 347 ° 27.1.2023 02:30 ARSO
2598 Hitrost vetra (2 m) (km/h) 8 km/h 27.1.2023 02:30 ARSO

Pregled podatkov zadnjih 24 ur

Zap.
št.
Datum in čas
(lokalni čas)
SOTINSKI BREG ARSO
Sončno
sevanje
Padavine Relativna
zračna
vlaga
(2
m)
Temperatura
(2
m)
Smer
vetra
(2
m)
Hitrost
vetra
(2
m)
1 27.1.2023 02:30 0 0,1 98 -1,5 347 8
2 27.1.2023 02:00 0 0 98 -1,4 355 8
3 27.1.2023 01:30 0 0 98 -1,3 5 8
4 27.1.2023 01:00 0 0 98 -1,2 359 8
5 27.1.2023 00:30 0 0 98 -1,2 4 8
6 27.1.2023 00:00 0 0 98 -1,1 16 9
7 26.1.2023 23:30 0 0 98 -1 24 8
8 26.1.2023 23:00 0 0 99 -1 47 9
9 26.1.2023 22:30 0 0 99 -0,9 44 9
10 26.1.2023 22:00 0 0 99 -0,8 15 7
11 26.1.2023 21:30 0 0 99 -0,8 1 6
12 26.1.2023 21:00 0 0 99 -0,8 357 5
13 26.1.2023 20:30 0 0 98 -0,8 9 5
14 26.1.2023 20:00 0 0 97 -0,7 5 5
15 26.1.2023 19:30 0 0 97 -0,7 43 6
16 26.1.2023 19:00 0 0 97 -0,7 26 7
17 26.1.2023 18:30 0 0 96 -0,6 6 5
18 26.1.2023 18:00 0 0 96 -0,5 46 5
19 26.1.2023 17:30 0 0 96 -0,4 41 6
20 26.1.2023 17:00 0 0 96 -0,3 22 5
21 26.1.2023 16:30 7 0 94 -0,2 38 5
22 26.1.2023 16:00 17 0 94 0 40 6
23 26.1.2023 15:30 32 0 93 0,2 25 5
24 26.1.2023 15:00 59 0 93 0,2 18 4
25 26.1.2023 14:30 76 0 94 0,2 7 6
26 26.1.2023 14:00 75 0 96 0,3 44 4
27 26.1.2023 13:30 103 0 97 0,2 20 4
28 26.1.2023 13:00 105 0 99 0,1 355 6
29 26.1.2023 12:30 99 0 100 0 347 5
30 26.1.2023 12:00 76 0 100 -0,2 346 6
31 26.1.2023 11:30 63 0 100 -0,3 343 7
32 26.1.2023 11:00 60 0 100 -0,3 334 2
33 26.1.2023 10:30 62 0 100 -0,4 199 2
34 26.1.2023 10:00 51 0 100 -0,5 182 1
35 26.1.2023 09:30 35 0 100 -0,6 344 1
36 26.1.2023 09:00 22 0 100 -0,7 279 1
37 26.1.2023 08:30 11 0 100 -0,8 140 5
38 26.1.2023 08:00 2 0 100 -0,8 116 4
39 26.1.2023 07:30 0 0 100 -0,8 171 2
40 26.1.2023 07:00 0 0 100 -0,7 146 4
41 26.1.2023 06:30 0 0 100 -0,7 135 5
42 26.1.2023 06:00 0 0 100 -0,7 132 5
43 26.1.2023 05:30 0 0 100 -0,7 136 4
44 26.1.2023 05:00 0 0 100 -0,7 140 5
45 26.1.2023 04:30 0 0 100 -0,8 147 6
46 26.1.2023 04:00 0 0 100 -0,7 152 6
47 26.1.2023 03:30 0 0 100 -0,7 114 6
48 26.1.2023 03:00 0 0 100 -0,7 113 7